"Pseudo-MPEC" for P12omkc

Created 2026 Jul 17 15:35:02 UT using Find_Orb

Click here for an explanation of pseudo-MPECs

 
 Astrometry: 
     P12omkc*0C2026 07 14.41726419 39 54.060-38 12 35.31   ~7EBZ 20.84wXNEOCPF51
     P12omkc 0C2026 07 14.42380719 39 53.777-38 12 31.89   ~7EBZ 21.04wXNEOCPF51
     P12omkc 0C2026 07 14.43035819 39 53.495-38 12 28.62   ~7EBZ 21.32wXNEOCPF51
     P12omkc 0C2026 07 14.43693419 39 53.228-38 12 25.18   ~7EBZ 21.11wXNEOCPF51
     P12omkc 3C2026 07 16.43353819 38 43.963-37 54 10.49   ~7GD5 20.99GVNEOCPT14
     P12omkc 3C2026 07 16.43451019 38 43.921-37 54 09.92   ~7GD5 20.99GVNEOCPT14
     P12omkc 3C2026 07 16.43548219 38 43.879-37 54 09.37   ~7GD5 20.97GVNEOCPT14
     P12omkc 1C2026 07 17.38742519 38 11.748-37 44 55.53   ~7HFK 21.03GVNEOCPT12
     P12omkc 1C2026 07 17.38896719 38 11.680-37 44 54.65   ~7HFK 20.86GVNEOCPT12
     P12omkc 1C2026 07 17.39051119 38 11.616-37 44 53.78   ~7HFK 20.76GVNEOCPT12

Station data:
(F51) Pan-STARRS 1, Haleakala  (N20.707234 W156.255910)  US/Hawaii.
   Observers J. Herman, T. Lowe, P. Minguez, A. Schultz, I. Smith. Measurers
   K. Chambers, T. de Boer, J. Fairlamb, H. Gao, M. Huber, C.-C. Lin, E.
   Magnier, Y. Ramanjooloo, R. Wainscoat, R. Weryk. 1.8-m Ritchey-Chrétien +
   CCD.
(T12) Mauna Kea-UH/Tholen NEO Follow-Up (2.24-m)  (N19.822991 W155.469434)
   US/Hawaii.  Observer R. Weryk. 2.24-m f/10.1 University of Hawaii
   reflector.
(T14) Mauna Kea-UH/Tholen NEO Follow-Up (CFHT)  (N19.825252 W155.468876)
   US/Hawaii.  Observer R. Weryk. 3.6-m Canada-France-Hawaii Telescope.

Orbital elements:  P12omkc
   Perihelion 2026 Jun 29.484124 +/- 0.665 TT = 11:37:08.3 (JD 2461220.984124)
Epoch 2026 Jul 17.0 TT = JDT 2461238.5   Earth MOID: 0.4825      AutoNEOCP
M   5.269573758 +/- 0.22            (J2000 ecliptic)
n   0.300845577 +/- 0.00236         Peri.  299.771884 +/- 0.6
a   2.205838069 +/- 0.0115          Node   341.850056 +/- 0.19
e   0.32784484 +/- 0.00201          Incl.    6.853382 +/- 0.047
P   3.27612                H 21.11  G  0.15   U  8.7
q 1.482665426 +/- 0.00336    Q 2.929010713 +/- 0.0197
From 10 observations 2026 July 14-17; mean residual 0".07
Residuals in arcseconds: 
260714 F51  .12-  .03+    260716 T14  .01-  .01-    260717 T12  .01-  .00     
260714 F51  .08-  .07+    260716 T14  .00   .01+    260717 T12  .01+  .01-    
260714 F51  .02-  .05-    260716 T14  .00   .00     
260714 F51  .24+  .05-    260717 T12  .01+  .01+    

Ephemerides (geocentric):
Date (UTC) HH   RA             Dec           delta  r     elong  mag " sig PA
---- --------  ------------   ------------  ------ ------ -----  --- --------
2026 07 17 16  19 38 01.905   -37 41 54.60  .48744 1.4899 163.4 21.1 .127   4
2026 07 17 17  19 38 00.498   -37 41 29.67  .48749 1.4900 163.4 21.1 .129   5
2026 07 17 18  19 37 59.092   -37 41 04.70  .48753 1.4900 163.4 21.1 .132   6
2026 07 17 19  19 37 57.687   -37 40 39.69  .48758 1.4900 163.4 21.1 .135   7
2026 07 17 20  19 37 56.282   -37 40 14.65  .48762 1.4901 163.4 21.1 .139   8
2026 07 17 21  19 37 54.880   -37 39 49.56  .48767 1.4901 163.3 21.1 .142   9
2026 07 17 22  19 37 53.478   -37 39 24.44  .48771 1.4901 163.3 21.1 .145  10
2026 07 17 23  19 37 52.077   -37 38 59.29  .48776 1.4902 163.3 21.1 .149  11
2026 07 18 00  19 37 50.677   -37 38 34.09  .48781 1.4902 163.3 21.1 .152  11
2026 07 18 01  19 37 49.279   -37 38 08.86  .48785 1.4902 163.3 21.1 .156  12
2026 07 18 02  19 37 47.881   -37 37 43.59  .48790 1.4903 163.3 21.1 .160  13
2026 07 18 03  19 37 46.485   -37 37 18.29  .48795 1.4903 163.3 21.1 .164  14
2026 07 18 04  19 37 45.090   -37 36 52.94  .48800 1.4903 163.3 21.1 .168  15
2026 07 18 05  19 37 43.696   -37 36 27.56  .48804 1.4904 163.3 21.1 .172  16
2026 07 18 06  19 37 42.303   -37 36 02.14  .48809 1.4904 163.3 21.1 .176  17
2026 07 18 07  19 37 40.911   -37 35 36.69  .48814 1.4904 163.3 21.1 .181  17
2026 07 18 08  19 37 39.521   -37 35 11.20  .48819 1.4905 163.3 21.1 .185  18
2026 07 18 09  19 37 38.131   -37 34 45.67  .48824 1.4905 163.3 21.1 .190  19
2026 07 18 10  19 37 36.743   -37 34 20.10  .48829 1.4905 163.3 21.1 .195  20
2026 07 18 11  19 37 35.356   -37 33 54.50  .48834 1.4906 163.3 21.1 .200  20
2026 07 18 12  19 37 33.971   -37 33 28.86  .48839 1.4906 163.3 21.1 .205  21
2026 07 18 13  19 37 32.586   -37 33 03.18  .48844 1.4906 163.3 21.1 .210  22
2026 07 18 14  19 37 31.203   -37 32 37.47  .48849 1.4907 163.2 21.1 .215  23
2026 07 18 15  19 37 29.821   -37 32 11.72  .48854 1.4907 163.2 21.1 .220  23
2026 07 18 16  19 37 28.441   -37 31 45.93  .48859 1.4907 163.2 21.1 .226  24
2026 07 18 17  19 37 27.061   -37 31 20.11  .48864 1.4908 163.2 21.1 .231  24
2026 07 18 18  19 37 25.683   -37 30 54.24  .48869 1.4908 163.2 21.1 .237  25
2026 07 18 19  19 37 24.307   -37 30 28.35  .48874 1.4908 163.2 21.1 .243  26
2026 07 18 20  19 37 22.931   -37 30 02.41  .48879 1.4909 163.2 21.1 .249  26
2026 07 18 21  19 37 21.557   -37 29 36.44  .48884 1.4909 163.2 21.1 .255  27
2026 07 18 22  19 37 20.184   -37 29 10.44  .48890 1.4909 163.2 21.1 .261  27
2026 07 18 23  19 37 18.813   -37 28 44.39  .48895 1.4910 163.2 21.1 .267  28
2026 07 19 00  19 37 17.443   -37 28 18.31  .48900 1.4910 163.2 21.1 .274  28
2026 07 19 01  19 37 16.074   -37 27 52.20  .48905 1.4911 163.2 21.1 .280  29
2026 07 19 02  19 37 14.707   -37 27 26.05  .48911 1.4911 163.2 21.1 .287  30
2026 07 19 03  19 37 13.341   -37 26 59.86  .48916 1.4911 163.1 21.1 .293  30
2026 07 19 04  19 37 11.977   -37 26 33.63  .48922 1.4912 163.1 21.1 .300  30
2026 07 19 05  19 37 10.614   -37 26 07.37  .48927 1.4912 163.1 21.1 .307  31
2026 07 19 06  19 37 09.252   -37 25 41.08  .48932 1.4912 163.1 21.1 .314  31
2026 07 19 07  19 37 07.892   -37 25 14.74  .48938 1.4913 163.1 21.1 .321  32
2026 07 19 08  19 37 06.533   -37 24 48.38  .48943 1.4913 163.1 21.1 .329  32
2026 07 19 09  19 37 05.176   -37 24 21.97  .48949 1.4913 163.1 21.1 .336  33
2026 07 19 10  19 37 03.820   -37 23 55.53  .48954 1.4914 163.1 21.1 .344  33
2026 07 19 11  19 37 02.466   -37 23 29.05  .48960 1.4914 163.1 21.1 .351  34
2026 07 19 12  19 37 01.113   -37 23 02.54  .48966 1.4915 163.1 21.1 .359  34
2026 07 19 13  19 36 59.762   -37 22 35.99  .48971 1.4915 163.1 21.1 .367  34
2026 07 19 14  19 36 58.412   -37 22 09.41  .48977 1.4915 163.0 21.1 .375  35
2026 07 19 15  19 36 57.064   -37 21 42.79  .48982 1.4916 163.0 21.1 .383  35